Location: Campillo
(40.8621°N, 4.2488°W)
Time: 06:33:14
(UTC+00:00)

X-37B - Pass Details

Date: 31 July 2021
Orbit: 381 x 393 km, 45.0° (Epoch: 29 August)

Event Time Altitude Azimuth Distance (km) Brightness Sun altitude
Exits shadow 04:27:30 11° 225° (SW) 1,327 2.6 -8.3°
Maximum altitude 04:30:21 46° 151° (SSE) 519 1.2 -7.8°
Drops below altitude 10° 04:33:24 10° 77° (ENE) 1,398 4.8 -7.3°
Sets 04:35:30 0° 71° (ENE) 2,255 6.5 -7.0°
